Time,TemperatureF,DewpointF,PressureIn,WindDirection,WindDirectionDegrees,WindSpeedMPH,WindSpeedGustMPH,Humidity,HourlyPrecipIn,Conditions,Clouds,dailyrainin,SoftwareType,DateUTC
2013-11-28 00:01:00,27.9,27.9,29.21,NNE,31,15.8,29.1,100,0.00,,,0.00,VWS V13.01,2013-11-28 05:01:00,
2013-11-28 00:06:00,27.9,27.9,29.23,North,9,8.7,29.1,100,0.00,,,0.00,VWS V13.01,2013-11-28 05:06:00,
2013-11-28 00:07:00,27.7,27.7,29.23,NNE,31,18.5,24.6,100,0.00,,,0.00,VWS V13.01,2013-11-28 05:07:00,
2013-11-28 00:10:00,27.7,27.7,29.23,North,9,12.4,24.6,100,0.00,,,0.00,VWS V13.01,2013-11-28 05:10:00,
2013-11-28 00:15:00,27.3,27.3,29.23,NNE,26,12.1,21.9,100,0.00,,,0.00,VWS V13.01,2013-11-28 05:15:00,
2013-11-28 00:17:00,27.3,27.3,29.23,NE,48,9.4,21.9,100,0.00,,,0.00,VWS V13.01,2013-11-28 05:17:00,
2013-11-28 00:23:00,27.1,27.1,29.23,ENE,65,5.4,25.5,100,0.00,,,0.00,VWS V13.01,2013-11-28 05:23:00,
2013-11-28 00:30:00,27.0,25.0,29.23,North,357,19.1,30.0,92,0.00,,,0.00,VWS V13.01,2013-11-28 05:30:00,
2013-11-28 00:35:00,26.8,26.8,29.23,NNE,30,15.8,26.4,100,0.00,,,0.00,VWS V13.01,2013-11-28 05:35:00,
2013-11-28 00:41:00,26.2,26.2,29.23,NE,40,16.4,21.9,100,0.00,,,0.00,VWS V13.01,2013-11-28 05:41:00,
2013-11-28 00:48:00,26.1,25.1,29.23,NNE,30,15.8,25.5,96,0.00,,,0.00,VWS V13.01,2013-11-28 05:48:00,
2013-11-28 00:53:00,25.9,24.9,29.26,NNE,14,13.1,26.4,96,0.00,,,0.00,VWS V13.01,2013-11-28 05:53:00,
2013-11-28 00:59:00,25.7,24.7,29.26,NE,38,15.1,30.9,96,0.00,,,0.00,VWS V13.01,2013-11-28 05:59:00,
2013-11-28 01:05:00,25.3,24.4,29.26,NNE,28,15.8,33.6,96,0.00,,,0.00,VWS V13.01,2013-11-28 06:05:00,
2013-11-28 01:12:00,25.2,24.2,29.26,North,3,19.1,25.5,96,0.00,,,0.00,VWS V13.01,2013-11-28 06:12:00,
2013-11-28 01:17:00,25.0,24.0,29.26,NE,35,13.1,21.9,96,0.00,,,0.00,VWS V13.01,2013-11-28 06:17:00,
2013-11-28 01:23:00,24.8,23.8,29.29,NW,323,11.4,24.6,96,0.00,,,0.00,VWS V13.01,2013-11-28 06:23:00,
2013-11-28 01:29:00,24.6,23.6,29.29,NNE,15,19.8,26.4,96,0.00,,,0.00,VWS V13.01,2013-11-28 06:29:00,
2013-11-28 01:36:00,24.4,23.5,29.29,North,357,12.4,30.9,96,0.00,,,0.00,VWS V13.01,2013-11-28 06:36:00,
2013-11-28 01:41:00,24.3,23.3,29.29,NNE,19,12.1,16.1,96,0.00,,,0.00,VWS V13.01,2013-11-28 06:41:00,
2013-11-28 01:48:00,24.3,23.3,29.29,NNE,15,15.8,21.9,96,0.00,,,0.00,VWS V13.01,2013-11-28 06:48:00,
2013-11-28 01:53:00,24.1,23.1,29.32,NNE,22,13.1,17.4,96,0.00,,,0.00,VWS V13.01,2013-11-28 06:53:00,
2013-11-28 01:59:00,23.7,20.7,29.32,North,357,11.4,30.9,88,0.00,,,0.00,VWS V13.01,2013-11-28 06:59:00,
2013-11-28 02:05:00,23.5,20.5,29.32,NNE,33,11.4,31.8,88,0.00,,,0.00,VWS V13.01,2013-11-28 07:05:00,
2013-11-28 02:11:00,23.5,20.5,29.32,North,5,15.8,21.0,88,0.00,,,0.00,VWS V13.01,2013-11-28 07:11:00,
2013-11-28 02:18:00,23.4,20.3,29.32,NNE,12,12.1,26.4,88,0.00,,,0.00,VWS V13.01,2013-11-28 07:18:00,
2013-11-28 02:23:00,23.2,20.2,29.35,North,5,8.7,16.1,88,0.00,,,0.00,VWS V13.01,2013-11-28 07:23:00,
2013-11-28 02:29:00,23.0,20.0,29.35,NNE,24,14.4,19.2,88,0.00,,,0.00,VWS V13.01,2013-11-28 07:29:00,
2013-11-28 02:35:00,22.8,19.8,29.35,NW,320,8.1,19.2,88,0.00,,,0.00,VWS V13.01,2013-11-28 07:35:00,
2013-11-28 02:41:00,22.8,19.8,29.35,NNE,29,16.4,26.4,88,0.00,,,0.00,VWS V13.01,2013-11-28 07:41:00,
2013-11-28 02:47:00,22.6,19.6,29.35,NNE,21,9.4,23.7,88,0.00,,,0.00,VWS V13.01,2013-11-28 07:47:00,
2013-11-28 02:54:00,22.5,19.5,29.35,NNE,14,15.8,24.6,88,0.00,,,0.00,VWS V13.01,2013-11-28 07:54:00,
2013-11-28 02:59:00,22.3,19.3,29.35,NNE,17,13.1,24.6,88,0.00,,,0.00,VWS V13.01,2013-11-28 07:59:00,
2013-11-28 03:05:00,21.9,18.9,29.38,North,7,12.4,26.4,88,0.00,,,0.00,VWS V13.01,2013-11-28 08:05:00,
2013-11-28 03:11:00,21.7,18.7,29.38,North,8,8.1,24.6,88,0.00,,,0.00,VWS V13.01,2013-11-28 08:11:00,
2013-11-28 03:18:00,21.6,18.6,29.38,NNE,25,14.4,25.5,88,0.00,,,0.00,VWS V13.01,2013-11-28 08:18:00,
2013-11-28 03:23:00,21.2,18.2,29.38,NNE,32,12.4,21.0,88,0.00,,,0.00,VWS V13.01,2013-11-28 08:23:00,
2013-11-28 03:29:00,21.0,18.0,29.38,NNW,339,8.7,17.4,88,0.00,,,0.00,VWS V13.01,2013-11-28 08:29:00,
2013-11-28 03:36:00,20.8,17.9,29.38,NNE,13,13.1,24.6,88,0.00,,,0.00,VWS V13.01,2013-11-28 08:36:00,
2013-11-28 03:41:00,20.5,17.5,29.38,NNW,330,10.1,26.4,88,0.00,,,0.00,VWS V13.01,2013-11-28 08:41:00,
2013-11-28 03:47:00,20.5,17.5,29.38,North,0,15.8,29.1,88,0.00,,,0.00,VWS V13.01,2013-11-28 08:47:00,
2013-11-28 03:53:00,20.3,17.3,29.41,ENE,60,11.4,21.9,88,0.00,,,0.00,VWS V13.01,2013-11-28 08:53:00,
2013-11-28 03:59:00,20.1,17.1,29.41,North,1,11.4,16.6,88,0.00,,,0.00,VWS V13.01,2013-11-28 08:59:00,
2013-11-28 04:05:00,20.1,17.1,29.41,NNE,25,8.1,17.4,88,0.00,,,0.00,VWS V13.01,2013-11-28 09:05:00,
2013-11-28 04:11:00,20.1,17.1,29.41,North,357,8.1,24.6,88,0.00,,,0.00,VWS V13.01,2013-11-28 09:11:00,
2013-11-28 04:18:00,19.9,17.0,29.41,North,0,8.7,21.0,88,0.00,,,0.00,VWS V13.01,2013-11-28 09:18:00,
2013-11-28 04:24:00,19.8,16.8,29.44,North,357,7.4,24.6,88,0.00,,,0.00,VWS V13.01,2013-11-28 09:24:00,
2013-11-28 04:29:00,19.2,17.3,29.44,NNW,342,12.1,16.1,92,0.00,,,0.00,VWS V13.01,2013-11-28 09:29:00,
2013-11-28 04:36:00,19.2,17.3,29.44,NNE,18,14.4,19.2,92,0.00,,,0.00,VWS V13.01,2013-11-28 09:36:00,
2013-11-28 04:41:00,19.2,17.3,29.44,NNE,29,6.7,16.6,92,0.00,,,0.00,VWS V13.01,2013-11-28 09:41:00,
2013-11-28 04:47:00,18.9,16.9,29.44,North,353,11.4,15.2,92,0.00,,,0.00,VWS V13.01,2013-11-28 09:47:00,
2013-11-28 04:53:00,18.9,16.9,29.47,NE,44,9.4,20.1,92,0.00,,,0.00,VWS V13.01,2013-11-28 09:53:00,
2013-11-28 05:00:00,18.7,16.8,29.47,North,357,12.1,17.4,92,0.00,,,0.00,VWS V13.01,2013-11-28 10:00:00,
2013-11-28 05:05:00,18.5,16.6,29.47,NNE,30,11.4,25.5,92,0.00,,,0.00,VWS V13.01,2013-11-28 10:05:00,
2013-11-28 05:11:00,18.1,16.2,29.47,North,357,13.1,17.4,92,0.00,,,0.00,VWS V13.01,2013-11-28 10:11:00,
2013-11-28 05:18:00,18.3,16.4,29.47,North,7,8.1,23.7,92,0.00,,,0.00,VWS V13.01,2013-11-28 10:18:00,
2013-11-28 05:24:00,18.1,16.2,29.50,NNE,15,11.4,29.1,92,0.00,,,0.00,VWS V13.01,2013-11-28 10:24:00,
2013-11-28 05:29:00,17.8,15.9,29.50,North,7,13.1,24.6,92,0.00,,,0.00,VWS V13.01,2013-11-28 10:29:00,
2013-11-28 05:35:00,17.6,15.7,29.50,NNE,13,8.1,29.1,92,0.00,,,0.00,VWS V13.01,2013-11-28 10:35:00,
2013-11-28 05:42:00,17.2,15.3,29.50,North,357,8.1,20.1,92,0.00,,,0.00,VWS V13.01,2013-11-28 10:42:00,
2013-11-28 05:48:00,17.1,15.1,29.50,NE,36,12.1,21.9,92,0.00,,,0.00,VWS V13.01,2013-11-28 10:48:00,
2013-11-28 05:53:00,16.7,14.8,29.53,NNW,334,13.1,19.2,92,0.00,,,0.00,VWS V13.01,2013-11-28 10:53:00,
2013-11-28 06:00:00,16.3,14.4,29.53,North,357,7.4,18.3,92,0.00,,,0.00,VWS V13.01,2013-11-28 11:00:00,
2013-11-28 06:06:00,16.5,14.6,29.53,North,353,11.4,25.5,92,0.00,,,0.00,VWS V13.01,2013-11-28 11:06:00,
2013-11-28 06:11:00,16.2,14.2,29.53,North,7,12.1,21.9,92,0.00,,,0.00,VWS V13.01,2013-11-28 11:11:00,
2013-11-28 06:17:00,15.8,14.9,29.53,North,3,9.4,17.4,96,0.00,,,0.00,VWS V13.01,2013-11-28 11:17:00,
2013-11-28 06:24:00,16.2,14.2,29.56,NNE,20,13.1,30.9,92,0.00,,,0.00,VWS V13.01,2013-11-28 11:24:00,
2013-11-28 06:30:00,15.8,14.9,29.56,NNW,327,6.0,22.8,96,0.00,,,0.00,VWS V13.01,2013-11-28 11:30:00,
2013-11-28 06:35:00,14.9,14.0,29.59,North,8,8.1,10.7,96,0.00,,,0.00,VWS V13.01,2013-11-28 11:35:00,
2013-11-28 06:42:00,14.7,13.8,29.59,North,357,5.4,12.5,96,0.00,,,0.00,VWS V13.01,2013-11-28 11:42:00,
2013-11-28 06:47:00,15.4,14.5,29.59,NNW,331,8.1,21.9,96,0.00,,,0.00,VWS V13.01,2013-11-28 11:47:00,
2013-11-28 06:53:00,15.3,14.3,29.59,North,10,19.1,25.5,96,0.00,,,0.00,VWS V13.01,2013-11-28 11:53:00,
2013-11-28 06:59:00,15.3,14.3,29.59,NNE,19,8.1,16.1,96,0.00,,,0.00,VWS V13.01,2013-11-28 11:59:00,
2013-11-28 07:06:00,14.9,14.0,29.62,WNW,293,16.4,21.9,96,0.00,,,0.00,VWS V13.01,2013-11-28 12:06:00,
2013-11-28 07:13:00,14.7,13.8,29.62,North,357,7.4,12.5,96,0.00,,,0.00,VWS V13.01,2013-11-28 12:13:00,
2013-11-28 07:20:00,15.1,14.1,29.62,North,353,9.4,20.1,96,0.00,,,0.00,VWS V13.01,2013-11-28 12:20:00,
2013-11-28 07:25:00,14.9,14.0,29.62,North,10,8.7,19.2,96,0.00,,,0.00,VWS V13.01,2013-11-28 12:25:00,
2013-11-28 07:31:00,15.4,14.5,29.62,NNW,337,10.1,24.6,96,0.00,,,0.00,VWS V13.01,2013-11-28 12:31:00,
2013-11-28 07:37:00,15.8,14.9,29.65,NNE,15,10.7,17.4,96,0.00,,,0.00,VWS V13.01,2013-11-28 12:37:00,
2013-11-28 07:44:00,16.2,14.2,29.65,NNW,334,10.1,17.4,92,0.00,,,0.00,VWS V13.01,2013-11-28 12:44:00,
2013-11-28 07:49:00,16.3,14.4,29.65,NNW,340,8.7,22.8,92,0.00,,,0.00,VWS V13.01,2013-11-28 12:49:00,
2013-11-28 07:55:00,16.5,14.6,29.65,NNW,345,8.7,16.6,92,0.00,,,0.00,VWS V13.01,2013-11-28 12:55:00,
2013-11-28 08:02:00,16.9,15.0,29.65,NNW,341,8.7,21.0,92,0.00,,,0.00,VWS V13.01,2013-11-28 13:02:00,
2013-11-28 08:08:00,17.2,15.3,29.68,NNW,344,4.7,21.9,92,0.00,,,0.00,VWS V13.01,2013-11-28 13:08:00,
2013-11-28 08:13:00,17.2,15.3,29.68,North,353,16.4,21.9,92,0.00,,,0.00,VWS V13.01,2013-11-28 13:13:00,
2013-11-28 08:19:00,17.4,15.5,29.68,North,2,8.7,24.6,92,0.00,,,0.00,VWS V13.01,2013-11-28 13:19:00,
2013-11-28 08:26:00,17.4,15.5,29.68,NNE,31,8.1,21.9,92,0.00,,,0.00,VWS V13.01,2013-11-28 13:26:00,
2013-11-28 08:31:00,17.8,15.9,29.68,NW,312,13.1,25.5,92,0.00,,,0.00,VWS V13.01,2013-11-28 13:31:00,
2013-11-28 08:37:00,18.3,16.4,29.68,NNW,328,11.4,26.4,92,0.00,,,0.00,VWS V13.01,2013-11-28 13:37:00,
2013-11-28 08:44:00,18.9,16.9,29.68,NNW,335,9.4,21.9,92,0.00,,,0.00,VWS V13.01,2013-11-28 13:44:00,
2013-11-28 08:50:00,19.2,17.3,29.71,North,357,13.1,21.0,92,0.00,,,0.00,VWS V13.01,2013-11-28 13:50:00,
2013-11-28 08:55:00,19.4,17.5,29.71,NNE,27,10.1,24.6,92,0.00,,,0.00,VWS V13.01,2013-11-28 13:55:00,
2013-11-28 09:02:00,18.7,16.8,29.71,NNW,331,13.8,26.4,92,0.00,,,0.00,VWS V13.01,2013-11-28 14:02:00,
2013-11-28 09:07:00,19.2,17.3,29.71,NNE,32,15.1,21.9,92,0.00,,,0.00,VWS V13.01,2013-11-28 14:07:00,
2013-11-28 09:13:00,19.9,17.0,29.71,NE,51,15.1,20.1,88,0.00,,,0.00,VWS V13.01,2013-11-28 14:13:00,
2013-11-28 09:19:00,19.6,16.6,29.71,North,350,14.4,20.1,88,0.00,,,0.00,VWS V13.01,2013-11-28 14:19:00,
2013-11-28 09:26:00,19.9,17.0,29.71,North,357,12.4,21.0,88,0.00,,,0.00,VWS V13.01,2013-11-28 14:26:00,
2013-11-28 09:31:00,20.5,17.5,29.71,NE,40,6.0,29.1,88,0.00,,,0.00,VWS V13.01,2013-11-28 14:31:00,
2013-11-28 09:37:00,22.1,19.1,29.71,NNE,26,8.7,19.2,88,0.00,,,0.00,VWS V13.01,2013-11-28 14:37:00,
2013-11-28 09:43:00,20.1,17.1,29.71,NNW,340,12.4,25.5,88,0.00,,,0.00,VWS V13.01,2013-11-28 14:43:00,
2013-11-28 09:50:00,19.9,17.0,29.74,NNW,345,15.1,26.4,88,0.00,,,0.00,VWS V13.01,2013-11-28 14:50:00,
2013-11-28 09:55:00,20.3,17.3,29.74,North,2,9.4,26.4,88,0.00,,,0.00,VWS V13.01,2013-11-28 14:55:00,
2013-11-28 10:01:00,21.0,18.0,29.74,North,0,19.8,34.9,88,0.00,,,0.00,VWS V13.01,2013-11-28 15:01:00,
2013-11-28 10:07:00,21.4,18.4,29.74,North,7,16.4,21.9,88,0.00,,,0.00,VWS V13.01,2013-11-28 15:07:00,
2013-11-28 10:14:00,21.0,18.0,29.74,NNE,19,23.2,30.9,88,0.00,,,0.00,VWS V13.01,2013-11-28 15:14:00,
2013-11-28 10:19:00,21.2,18.2,29.74,North,353,9.4,26.4,88,0.00,,,0.00,VWS V13.01,2013-11-28 15:19:00,
2013-11-28 10:26:00,21.4,18.4,29.74,North,357,19.1,25.5,88,0.00,,,0.00,VWS V13.01,2013-11-28 15:26:00,
2013-11-28 10:32:00,21.4,18.4,29.74,NE,54,11.4,25.5,88,0.00,,,0.00,VWS V13.01,2013-11-28 15:32:00,
2013-11-28 10:37:00,21.9,18.9,29.74,North,357,22.5,34.9,88,0.00,,,0.00,VWS V13.01,2013-11-28 15:37:00,
2013-11-28 10:43:00,21.9,18.9,29.74,North,350,15.1,21.0,88,0.00,,,0.00,VWS V13.01,2013-11-28 15:43:00,
2013-11-28 10:49:00,22.6,19.6,29.74,NNW,333,13.1,30.0,88,0.00,,,0.00,VWS V13.01,2013-11-28 15:49:00,
2013-11-28 10:55:00,21.7,18.7,29.74,North,1,15.8,34.0,88,0.00,,,0.00,VWS V13.01,2013-11-28 15:55:00,
2013-11-28 11:01:00,21.9,18.9,29.74,NNE,24,13.1,17.4,88,0.00,,,0.00,VWS V13.01,2013-11-28 16:01:00,
2013-11-28 11:08:00,21.7,18.7,29.77,NNW,345,23.2,34.0,88,0.00,,,0.00,VWS V13.01,2013-11-28 16:08:00,
2013-11-28 11:13:00,21.6,18.6,29.77,NNE,31,17.1,30.0,88,0.00,,,0.00,VWS V13.01,2013-11-28 16:13:00,
2013-11-28 11:19:00,21.9,18.9,29.77,NE,39,15.1,30.0,88,0.00,,,0.00,VWS V13.01,2013-11-28 16:19:00,
2013-11-28 11:25:00,22.8,19.8,29.77,NNE,16,4.7,23.7,88,0.00,,,0.00,VWS V13.01,2013-11-28 16:25:00,
2013-11-28 11:32:00,22.8,19.8,29.77,North,353,8.1,20.1,88,0.00,,,0.00,VWS V13.01,2013-11-28 16:32:00,
2013-11-28 11:38:00,22.8,19.8,29.77,North,357,25.2,33.6,88,0.00,,,0.00,VWS V13.01,2013-11-28 16:38:00,
2013-11-28 11:43:00,22.1,19.1,29.77,North,4,13.1,30.9,88,0.00,,,0.00,VWS V13.01,2013-11-28 16:43:00,
2013-11-28 11:50:00,22.6,19.6,29.80,North,4,19.8,30.9,88,0.00,,,0.00,VWS V13.01,2013-11-28 16:50:00,
2013-11-28 11:55:00,22.5,19.5,29.80,NNW,331,12.4,34.9,88,0.00,,,0.00,VWS V13.01,2013-11-28 16:55:00,
2013-11-28 12:01:00,22.1,19.1,29.80,West,270,12.1,30.9,88,0.00,,,0.00,VWS V13.01,2013-11-28 17:01:00,
2013-11-28 12:07:00,21.6,18.6,29.80,NNE,17,19.1,34.9,88,0.00,,,0.00,VWS V13.01,2013-11-28 17:07:00,
2013-11-28 12:14:00,23.2,20.2,29.80,NNW,339,12.4,31.8,88,0.00,,,0.00,VWS V13.01,2013-11-28 17:14:00,
2013-11-28 12:19:00,23.7,20.7,29.80,NNE,26,11.4,29.1,88,0.00,,,0.00,VWS V13.01,2013-11-28 17:19:00,
2013-11-28 12:25:00,21.9,18.9,29.80,North,357,19.8,26.4,88,0.00,,,0.00,VWS V13.01,2013-11-28 17:25:00,
2013-11-28 12:32:00,21.0,18.0,29.80,North,10,22.5,36.7,88,0.00,,,0.00,VWS V13.01,2013-11-28 17:32:00,
2013-11-28 12:38:00,22.5,19.5,29.83,North,2,11.4,23.7,88,0.00,,,0.00,VWS V13.01,2013-11-28 17:38:00,
2013-11-28 12:43:00,21.7,18.7,29.83,NNE,20,19.1,28.2,88,0.00,,,0.00,VWS V13.01,2013-11-28 17:43:00,
2013-11-28 12:49:00,22.5,19.5,29.83,NW,315,13.1,27.3,88,0.00,,,0.00,VWS V13.01,2013-11-28 17:49:00,
2013-11-28 12:55:00,23.4,20.3,29.83,North,3,13.8,25.5,88,0.00,,,0.00,VWS V13.01,2013-11-28 17:55:00,
2013-11-28 13:02:00,22.6,19.6,29.83,NE,38,15.1,33.6,88,0.00,,,0.00,VWS V13.01,2013-11-28 18:02:00,
2013-11-28 13:07:00,21.9,18.9,29.83,North,2,13.1,41.2,88,0.00,,,0.00,VWS V13.01,2013-11-28 18:07:00,
2013-11-28 13:14:00,22.3,19.3,29.83,NW,310,8.7,27.3,88,0.00,,,0.00,VWS V13.01,2013-11-28 18:14:00,
2013-11-28 13:19:00,23.4,20.3,29.85,North,6,15.1,34.9,88,0.00,,,0.00,VWS V13.01,2013-11-28 18:19:00,
2013-11-28 13:25:00,22.1,19.1,29.85,NNE,19,19.1,31.8,88,0.00,,,0.00,VWS V13.01,2013-11-28 18:25:00,
2013-11-28 13:31:00,23.2,20.2,29.85,NNE,31,12.1,20.1,88,0.00,,,0.00,VWS V13.01,2013-11-28 18:31:00,
2013-11-28 13:38:00,21.7,18.7,29.85,NE,52,11.4,30.0,88,0.00,,,0.00,VWS V13.01,2013-11-28 18:38:00,
2013-11-28 13:44:00,21.9,18.9,29.85,NNW,337,15.1,30.0,88,0.00,,,0.00,VWS V13.01,2013-11-28 18:44:00,
2013-11-28 13:49:00,22.8,19.8,29.85,North,353,11.4,30.0,88,0.00,,,0.00,VWS V13.01,2013-11-28 18:49:00,
2013-11-28 13:55:00,23.0,20.0,29.85,North,9,13.1,25.5,88,0.00,,,0.00,VWS V13.01,2013-11-28 18:55:00,
2013-11-28 14:02:00,23.2,20.2,29.85,NNE,18,15.8,26.4,88,0.00,,,0.00,VWS V13.01,2013-11-28 19:02:00,
2013-11-28 14:07:00,22.8,19.8,29.85,NNE,32,12.1,24.6,88,0.00,,,0.00,VWS V13.01,2013-11-28 19:07:00,
2013-11-28 14:13:00,23.9,20.9,29.85,NNW,338,8.7,21.0,88,0.00,,,0.00,VWS V13.01,2013-11-28 19:13:00,
2013-11-28 14:20:00,24.1,21.0,29.88,NE,39,8.1,21.9,88,0.00,,,0.00,VWS V13.01,2013-11-28 19:20:00,
2013-11-28 14:25:00,22.1,19.1,29.88,NE,39,8.1,30.9,88,0.00,,,0.00,VWS V13.01,2013-11-28 19:25:00,
2013-11-28 14:31:00,22.8,19.8,29.88,NE,41,15.1,20.1,88,0.00,,,0.00,VWS V13.01,2013-11-28 19:31:00,
2013-11-28 14:38:00,23.5,20.5,29.88,NNE,21,16.4,21.9,88,0.00,,,0.00,VWS V13.01,2013-11-28 19:38:00,
2013-11-28 14:43:00,24.6,21.6,29.88,NNW,327,19.8,26.4,88,0.00,,,0.00,VWS V13.01,2013-11-28 19:43:00,
2013-11-28 14:49:00,23.7,20.7,29.88,NNW,328,8.1,20.1,88,0.00,,,0.00,VWS V13.01,2013-11-28 19:49:00,
2013-11-28 14:55:00,23.9,20.9,29.88,North,357,12.4,18.3,88,0.00,,,0.00,VWS V13.01,2013-11-28 19:55:00,
2013-11-28 15:01:00,22.6,19.6,29.88,North,6,25.2,33.6,88,0.00,,,0.00,VWS V13.01,2013-11-28 20:01:00,
2013-11-28 15:07:00,23.7,20.7,29.91,NNE,19,12.1,19.2,88,0.00,,,0.00,VWS V13.01,2013-11-28 20:07:00,
2013-11-28 15:13:00,23.2,20.2,29.91,NNW,331,13.1,30.9,88,0.00,,,0.00,VWS V13.01,2013-11-28 20:13:00,
2013-11-28 15:19:00,22.5,19.5,29.91,North,357,8.1,18.3,88,0.00,,,0.00,VWS V13.01,2013-11-28 20:19:00,
2013-11-28 15:26:00,21.2,18.2,29.91,North,357,13.1,21.0,88,0.00,,,0.00,VWS V13.01,2013-11-28 20:26:00,
2013-11-28 15:31:00,21.7,18.7,29.91,NNE,32,18.5,24.6,88,0.00,,,0.00,VWS V13.01,2013-11-28 20:31:00,
2013-11-28 15:37:00,22.8,19.8,29.91,NNW,342,6.0,15.2,88,0.00,,,0.00,VWS V13.01,2013-11-28 20:37:00,
2013-11-28 15:44:00,19.9,17.0,29.91,North,353,9.4,20.1,88,0.00,,,0.00,VWS V13.01,2013-11-28 20:44:00,
2013-11-28 15:49:00,19.4,17.5,29.91,NNW,339,7.4,16.1,92,0.00,,,0.00,VWS V13.01,2013-11-28 20:49:00,
2013-11-28 15:55:00,19.2,17.3,29.91,NNW,345,11.4,17.4,92,0.00,,,0.00,VWS V13.01,2013-11-28 20:55:00,
2013-11-28 16:01:00,19.0,17.1,29.91,NNW,343,4.7,16.1,92,0.00,,,0.00,VWS V13.01,2013-11-28 21:01:00,
2013-11-28 16:08:00,18.3,16.4,29.94,NW,321,4.7,15.2,92,0.00,,,0.00,VWS V13.01,2013-11-28 21:08:00,
2013-11-28 16:13:00,17.8,15.9,29.94,NNW,335,5.4,12.5,92,0.00,,,0.00,VWS V13.01,2013-11-28 21:13:00,
2013-11-28 16:20:00,17.2,15.3,29.94,NNW,336,3.4,14.3,92,0.00,,,0.00,VWS V13.01,2013-11-28 21:20:00,
2013-11-28 16:26:00,16.9,15.0,29.94,NW,321,4.0,9.8,92,0.00,,,0.00,VWS V13.01,2013-11-28 21:26:00,
2013-11-28 16:31:00,16.5,14.6,29.94,NW,310,4.0,9.8,92,0.00,,,0.00,VWS V13.01,2013-11-28 21:31:00,
2013-11-28 16:37:00,15.8,14.9,29.94,WNW,297,4.0,10.7,96,0.00,,,0.00,VWS V13.01,2013-11-28 21:37:00,
2013-11-28 16:43:00,16.2,14.2,29.94,NNW,332,5.4,12.5,92,0.00,,,0.00,VWS V13.01,2013-11-28 21:43:00,
2013-11-28 16:50:00,16.0,16.0,29.97,West,278,6.7,11.6,100,0.00,,,0.00,VWS V13.01,2013-11-28 21:50:00,
2013-11-28 16:55:00,16.0,16.0,29.97,NNW,339,4.7,14.3,100,0.00,,,0.00,VWS V13.01,2013-11-28 21:55:00,
2013-11-28 17:02:00,15.3,15.3,29.97,NW,324,0.0,11.6,100,0.00,,,0.00,VWS V13.01,2013-11-28 22:02:00,
2013-11-28 17:07:00,15.8,15.8,29.97,NW,313,4.0,10.7,100,0.00,,,0.00,VWS V13.01,2013-11-28 22:07:00,
2013-11-28 17:13:00,15.6,15.6,29.97,NW,318,12.1,16.1,100,0.00,,,0.00,VWS V13.01,2013-11-28 22:13:00,
2013-11-28 17:19:00,16.0,16.0,29.97,North,353,4.0,11.6,100,0.00,,,0.00,VWS V13.01,2013-11-28 22:19:00,
2013-11-28 17:26:00,16.0,16.0,29.97,NNW,336,5.4,11.6,100,0.00,,,0.00,VWS V13.01,2013-11-28 22:26:00,
2013-11-28 17:31:00,16.2,16.2,29.97,NNW,328,9.4,14.3,100,0.00,,,0.00,VWS V13.01,2013-11-28 22:31:00,
2013-11-28 17:37:00,16.3,16.3,29.97,NNW,339,8.1,12.5,100,0.00,,,0.00,VWS V13.01,2013-11-28 22:37:00,
2013-11-28 17:44:00,16.0,16.0,29.97,North,353,4.7,11.6,100,0.00,,,0.00,VWS V13.01,2013-11-28 22:44:00,
2013-11-28 17:50:00,15.4,15.4,29.97,NW,319,4.0,8.1,100,0.00,,,0.00,VWS V13.01,2013-11-28 22:50:00,
2013-11-28 17:55:00,15.4,15.4,29.97,NNW,331,8.7,11.6,100,0.00,,,0.00,VWS V13.01,2013-11-28 22:55:00,
2013-11-28 18:01:00,15.8,15.8,29.97,WNW,293,8.7,14.3,100,0.00,,,0.00,VWS V13.01,2013-11-28 23:01:00,
2013-11-28 18:08:00,16.2,16.2,30.00,NW,325,10.1,16.6,100,0.00,,,0.00,VWS V13.01,2013-11-28 23:08:00,
2013-11-28 18:13:00,15.8,15.8,30.00,NNW,338,4.7,16.1,100,0.00,,,0.00,VWS V13.01,2013-11-28 23:13:00,
2013-11-28 18:19:00,16.0,16.0,29.97,NW,318,8.1,15.2,100,0.00,,,0.00,VWS V13.01,2013-11-28 23:19:00,
2013-11-28 18:26:00,15.3,15.3,29.97,NW,317,6.0,10.7,100,0.00,,,0.00,VWS V13.01,2013-11-28 23:26:00,
2013-11-28 18:32:00,15.1,15.1,29.97,NW,325,6.0,11.6,100,0.00,,,0.00,VWS V13.01,2013-11-28 23:32:00,
2013-11-28 18:37:00,14.5,14.5,30.00,WNW,299,3.4,8.1,100,0.00,,,0.00,VWS V13.01,2013-11-28 23:37:00,
2013-11-28 18:44:00,14.5,14.5,30.00,NW,315,7.4,12.5,100,0.00,,,0.00,VWS V13.01,2013-11-28 23:44:00,
2013-11-28 18:50:00,14.4,14.4,30.03,NNW,345,4.7,10.7,100,0.00,,,0.00,VWS V13.01,2013-11-28 23:50:00,
2013-11-28 18:56:00,15.1,15.1,30.03,NNW,332,5.4,10.7,100,0.00,,,0.00,VWS V13.01,2013-11-28 23:56:00,
2013-11-28 19:01:00,14.9,14.9,30.03,NNW,335,6.0,9.8,100,0.00,,,0.00,VWS V13.01,2013-11-29 00:01:00,
2013-11-28 19:07:00,15.1,15.1,30.03,WNW,299,4.7,11.6,100,0.00,,,0.00,VWS V13.01,2013-11-29 00:07:00,
2013-11-28 19:14:00,15.4,15.4,30.03,North,1,9.4,18.3,100,0.00,,,0.00,VWS V13.01,2013-11-29 00:14:00,
2013-11-28 19:20:00,15.1,15.1,30.03,NW,313,4.7,11.6,100,0.00,,,0.00,VWS V13.01,2013-11-29 00:20:00,
2013-11-28 19:25:00,15.1,15.1,30.03,NNW,328,8.7,11.6,100,0.00,,,0.00,VWS V13.01,2013-11-29 00:25:00,
2013-11-28 19:32:00,14.9,14.9,30.03,NW,317,8.7,11.6,100,0.00,,,0.00,VWS V13.01,2013-11-29 00:32:00,
2013-11-28 19:38:00,14.7,14.7,30.03,North,349,6.0,12.5,100,0.00,,,0.00,VWS V13.01,2013-11-29 00:38:00,
2013-11-28 19:43:00,14.5,14.5,30.03,North,353,7.4,12.5,100,0.00,,,0.00,VWS V13.01,2013-11-29 00:43:00,
2013-11-28 19:50:00,15.1,15.1,30.03,NW,311,9.4,15.2,100,0.00,,,0.00,VWS V13.01,2013-11-29 00:50:00,
2013-11-28 19:56:00,15.1,15.1,30.03,North,357,13.1,17.4,100,0.00,,,0.00,VWS V13.01,2013-11-29 00:56:00,
2013-11-28 20:02:00,14.9,14.9,30.03,NW,320,5.4,16.6,100,0.00,,,0.00,VWS V13.01,2013-11-29 01:02:00,
2013-11-28 20:08:00,14.5,14.5,30.06,NNW,348,4.0,15.2,100,0.00,,,0.00,VWS V13.01,2013-11-29 01:08:00,
2013-11-28 20:14:00,14.9,14.9,30.06,NNW,334,8.7,12.5,100,0.00,,,0.00,VWS V13.01,2013-11-29 01:14:00,
2013-11-28 20:20:00,14.9,14.9,30.06,NNW,339,8.1,14.3,100,0.00,,,0.00,VWS V13.01,2013-11-29 01:20:00,
2013-11-28 20:25:00,14.9,14.9,30.06,NNW,333,8.7,17.4,100,0.00,,,0.00,VWS V13.01,2013-11-29 01:25:00,
2013-11-28 20:31:00,14.9,14.9,30.06,NNW,338,7.4,12.5,100,0.00,,,0.00,VWS V13.01,2013-11-29 01:31:00,
2013-11-28 20:38:00,15.1,15.1,30.06,NNW,340,13.1,17.4,100,0.00,,,0.00,VWS V13.01,2013-11-29 01:38:00,
2013-11-28 20:44:00,15.1,15.1,30.06,NW,321,11.4,21.0,100,0.00,,,0.00,VWS V13.01,2013-11-29 01:44:00,
2013-11-28 20:49:00,14.9,14.9,30.06,NW,326,9.4,16.1,100,0.00,,,0.00,VWS V13.01,2013-11-29 01:49:00,
2013-11-28 20:56:00,14.5,14.5,30.06,North,353,9.4,16.1,100,0.00,,,0.00,VWS V13.01,2013-11-29 01:56:00,
2013-11-28 21:02:00,14.7,14.7,30.06,NNW,339,8.7,17.4,100,0.00,,,0.00,VWS V13.01,2013-11-29 02:02:00,
2013-11-28 21:07:00,14.5,14.5,30.06,NNW,340,6.0,16.1,100,0.00,,,0.00,VWS V13.01,2013-11-29 02:07:00,
2013-11-28 21:14:00,14.5,14.5,30.06,North,353,12.1,16.1,100,0.00,,,0.00,VWS V13.01,2013-11-29 02:14:00,
2013-11-28 21:20:00,14.4,14.4,30.06,NNW,332,7.4,15.2,100,0.00,,,0.00,VWS V13.01,2013-11-29 02:20:00,
2013-11-28 21:26:00,14.2,14.2,30.06,North,357,5.4,12.5,100,0.00,,,0.00,VWS V13.01,2013-11-29 02:26:00,
2013-11-28 21:32:00,14.2,14.2,30.06,NNW,331,8.1,16.1,100,0.00,,,0.00,VWS V13.01,2013-11-29 02:32:00,
2013-11-28 21:38:00,14.0,14.0,30.06,NNW,333,8.7,12.5,100,0.00,,,0.00,VWS V13.01,2013-11-29 02:38:00,
2013-11-28 21:44:00,13.5,13.5,30.06,NW,326,5.4,16.6,100,0.00,,,0.00,VWS V13.01,2013-11-29 02:44:00,
2013-11-28 21:49:00,13.6,13.6,30.09,NW,322,9.4,16.6,100,0.00,,,0.00,VWS V13.01,2013-11-29 02:49:00,
2013-11-28 21:55:00,13.5,13.5,30.09,NNW,327,6.0,12.5,100,0.00,,,0.00,VWS V13.01,2013-11-29 02:55:00,
2013-11-28 22:02:00,12.4,12.4,30.09,North,1,4.7,9.8,100,0.00,,,0.00,VWS V13.01,2013-11-29 03:02:00,
2013-11-28 22:08:00,11.8,11.8,30.09,NE,34,4.7,7.2,100,0.00,,,0.00,VWS V13.01,2013-11-29 03:08:00,
2013-11-28 22:14:00,12.0,12.0,30.09,North,3,6.0,8.9,100,0.00,,,0.00,VWS V13.01,2013-11-29 03:14:00,
2013-11-28 22:20:00,12.6,12.6,30.09,North,8,6.0,12.5,100,0.00,,,0.00,VWS V13.01,2013-11-29 03:20:00,
2013-11-28 22:25:00,12.7,12.7,30.09,North,353,6.0,16.1,100,0.00,,,0.00,VWS V13.01,2013-11-29 03:25:00,
2013-11-28 22:31:00,12.7,12.7,30.09,North,7,4.7,12.5,100,0.00,,,0.00,VWS V13.01,2013-11-29 03:31:00,
2013-11-28 22:38:00,12.7,12.7,30.09,NNW,329,5.4,11.6,100,0.00,,,0.00,VWS V13.01,2013-11-29 03:38:00,
2013-11-28 22:44:00,12.6,12.6,30.09,NNE,32,8.7,16.6,100,0.00,,,0.00,VWS V13.01,2013-11-29 03:44:00,
2013-11-28 22:50:00,12.2,12.2,30.12,NNW,346,8.1,10.7,100,0.00,,,0.00,VWS V13.01,2013-11-29 03:50:00,
2013-11-28 22:56:00,12.0,12.0,30.12,NNW,343,6.0,8.9,100,0.00,,,0.00,VWS V13.01,2013-11-29 03:56:00,
2013-11-28 23:02:00,11.8,11.8,30.12,NNW,342,3.4,9.8,100,0.00,,,0.00,VWS V13.01,2013-11-29 04:02:00,
2013-11-28 23:08:00,11.1,11.1,30.12,North,2,0.0,10.7,100,0.00,,,0.00,VWS V13.01,2013-11-29 04:08:00,
2013-11-28 23:13:00,10.8,10.8,30.12,NW,324,6.0,8.1,100,0.00,,,0.00,VWS V13.01,2013-11-29 04:13:00,
2013-11-28 23:20:00,10.0,10.0,30.12,NW,310,4.0,8.1,100,0.00,,,0.00,VWS V13.01,2013-11-29 04:20:00,
2013-11-28 23:25:00,10.2,10.2,30.12,NNW,334,4.7,10.7,100,0.00,,,0.00,VWS V13.01,2013-11-29 04:25:00,
2013-11-28 23:32:00,10.4,10.4,30.12,NNW,346,5.4,8.1,100,0.00,,,0.00,VWS V13.01,2013-11-29 04:32:00,
2013-11-28 23:38:00,9.9,9.9,30.12,NNW,346,3.4,6.3,100,0.00,,,0.00,VWS V13.01,2013-11-29 04:38:00,
2013-11-28 23:44:00,9.0,9.0,30.12,NNW,343,0.0,0.0,100,0.00,,,0.00,VWS V13.01,2013-11-29 04:44:00,
2013-11-28 23:49:00,9.7,9.7,30.12,NNW,328,4.0,8.1,100,0.00,,,0.00,VWS V13.01,2013-11-29 04:49:00,
2013-11-28 23:55:00,10.2,10.2,30.12,NNW,348,3.4,10.7,100,0.00,,,0.00,VWS V13.01,2013-11-29 04:55:00,